Location: Kerb�bon
(47.7970°N, 3.3487°W)
Time: 13:35:15
(UTC+00:00)

USA 305 - Pass Details

Date: 12 May 2021
Orbit: 567 x 573 km, 54.0° (Epoch: 07 May)

Event Time Altitude Azimuth Distance (km) Brightness Sun altitude
Rises 22:01:11 0° 298° (WNW) 2,775 7.4 -17.8°
Reaches altitude 10° 22:03:32 10° 291° (WNW) 1,875 6.3 -18.0°
Maximum altitude 22:07:32 41° 221° (SW) 831 3.5 -18.4°
Enters shadow 22:08:26 36° 189° (S) 911 3.5 -18.5°
